Tracking 29892 objects as of 21-Nov-2024
HD Live streaming from Space Station
objects crossing your sky now

COSMOS 1823 DEB

Track COSMOS 1823 DEB now!
10-day predictions


NORAD ID: 39806
Int'l Code: 1987-020EE
Perigee: 1,468.4 km
Apogee: 1,563.3 km
Inclination: 73.6 °
Period: 116.2 minutes
Semi major axis: 7886 km
RCS: 0.0154 m2 (small)
Launch date: February 20, 1987
Source: Commonwealth of Independent States (former USSR) (CIS)
Launch site: PLESETSK MISSILE AND SPACE COMPLEX (PKMTR)

Note: This is SATELLITE DEBRIS
Your satellite tracking list
Your tracking list is empty




NASA's NSSDC Master Catalog

Two Line Element Set (TLE):
1 39806U 87020EE  24323.63590505  .00000458  00000-0  35586-2 0  9996
2 39806  73.6304 277.7718 0060141  86.0452 274.7464 12.39507492474693
Source of the keplerian elements: AFSPC